GLD1974 TFFF-TDCF

Flight info

Callsign GLD1974
Flight time 0h 29m
Altitude 3000
Route EMOLA2R EMOLA
Aircraft C172/L-SFG/C

Departure

Time 2026-05-04 19:16
Airport Martinique Aimé Césaire International Airport (TFFF)

Arrival

Time 2026-05-04 19:45
Airport Canefield Airport (TDCF)
Time Latitude Longitude Altitude Speed Heading
2026-05-04 19:06 14.59295 -61.00685 6 ft 0 kts 167°
2026-05-04 19:12 14.59288 -61.00683 6 ft 7 kts 174°
2026-05-04 19:12 14.59148 -61.00684 6 ft 16 kts 168°
2026-05-04 19:12 14.59061 -61.00643 5 ft 13 kts 114°
2026-05-04 19:13 14.59057 -61.00597 4 ft 0 kts 82°
2026-05-04 19:13 14.59060 -61.00585 4 ft 12 kts 79°
2026-05-04 19:14 14.59098 -61.00367 6 ft 47 kts 79°
2026-05-04 19:14 14.59147 -61.00016 91 ft 54 kts 81°
2026-05-04 19:14 14.59195 -60.99595 162 ft 64 kts 79°
2026-05-04 19:14 14.59276 -60.99107 248 ft 73 kts 80°
2026-05-04 19:15 14.59496 -60.98630 335 ft 79 kts 48°
2026-05-04 19:15 14.60041 -60.98408 431 ft 91 kts 21°
2026-05-04 19:15 14.60687 -60.98308 530 ft 96 kts 18°
2026-05-04 19:15 14.61353 -60.98190 605 ft 97 kts 20°
2026-05-04 19:16 14.62020 -60.98114 675 ft 97 kts 19°
2026-05-04 19:16 14.62715 -60.98179 753 ft 111 kts 346°
2026-05-04 19:16 14.63370 -60.98677 835 ft 120 kts 324°
2026-05-04 19:16 14.63976 -60.99291 934 ft 124 kts 322°
2026-05-04 19:17 14.64580 -60.99932 1072 ft 124 kts 322°
2026-05-04 19:17 14.65184 -61.00560 1207 ft 121 kts 322°
2026-05-04 19:17 14.65775 -61.01151 1347 ft 116 kts 322°
2026-05-04 19:17 14.66336 -61.01731 1495 ft 116 kts 322°
2026-05-04 19:18 14.66896 -61.02309 1627 ft 109 kts 323°
2026-05-04 19:18 14.67424 -61.02855 1775 ft 107 kts 322°
2026-05-04 19:18 14.67958 -61.03404 1909 ft 106 kts 322°
2026-05-04 19:18 14.68474 -61.03942 1991 ft 109 kts 320°
2026-05-04 19:19 14.68950 -61.04614 2008 ft 126 kts 306°
2026-05-04 19:19 14.69433 -61.05419 2007 ft 134 kts 304°
2026-05-04 19:19 14.69922 -61.06245 2007 ft 137 kts 304°
2026-05-04 19:19 14.70416 -61.07082 2004 ft 137 kts 304°
2026-05-04 19:20 14.70922 -61.07922 2003 ft 138 kts 304°
2026-05-04 19:20 14.71421 -61.08732 2103 ft 123 kts 305°
2026-05-04 19:20 14.71842 -61.09432 2380 ft 112 kts 305°
2026-05-04 19:20 14.72231 -61.10174 2447 ft 125 kts 296°
2026-05-04 19:21 14.72602 -61.11021 2426 ft 129 kts 295°
2026-05-04 19:21 14.73056 -61.11747 2425 ft 112 kts 314°
2026-05-04 19:21 14.73526 -61.12344 2428 ft 106 kts 310°
2026-05-04 19:21 14.73999 -61.12952 2401 ft 110 kts 310°
2026-05-04 19:22 14.74436 -61.13512 2429 ft 98 kts 310°
2026-05-04 19:22 14.74895 -61.14084 2433 ft 108 kts 313°
2026-05-04 19:22 14.75388 -61.14681 2446 ft 112 kts 314°
2026-05-04 19:22 14.75915 -61.15319 2438 ft 119 kts 313°
2026-05-04 19:23 14.76458 -61.15976 2431 ft 118 kts 313°
2026-05-04 19:23 14.77001 -61.16630 2434 ft 121 kts 313°
2026-05-04 19:23 14.77574 -61.17320 2416 ft 128 kts 313°
2026-05-04 19:23 14.78147 -61.18004 2427 ft 126 kts 313°
2026-05-04 19:24 14.78745 -61.18648 2425 ft 122 kts 325°
2026-05-04 19:24 14.79432 -61.19146 2437 ft 123 kts 332°
2026-05-04 19:24 14.80167 -61.19660 2439 ft 131 kts 333°
2026-05-04 19:24 14.80927 -61.20182 2432 ft 129 kts 335°
2026-05-04 19:25 14.81688 -61.20633 2439 ft 127 kts 337°
2026-05-04 19:25 14.82486 -61.21088 2424 ft 133 kts 337°
2026-05-04 19:25 14.83247 -61.21495 2431 ft 119 kts 338°
2026-05-04 19:25 14.83998 -61.21898 2434 ft 125 kts 337°
2026-05-04 19:26 14.84781 -61.22317 2435 ft 127 kts 338°
2026-05-04 19:26 14.85573 -61.22744 2437 ft 130 kts 338°
2026-05-04 19:26 14.86389 -61.23185 2435 ft 133 kts 338°
2026-05-04 19:26 14.87206 -61.23626 2436 ft 132 kts 338°
2026-05-04 19:27 14.88028 -61.24070 2435 ft 134 kts 338°
2026-05-04 19:27 14.88857 -61.24516 2432 ft 134 kts 337°
2026-05-04 19:27 14.89674 -61.24948 2435 ft 134 kts 338°
2026-05-04 19:27 14.90515 -61.25390 2435 ft 137 kts 338°
2026-05-04 19:28 14.91367 -61.25842 2436 ft 138 kts 337°
2026-05-04 19:28 14.92225 -61.26293 2436 ft 138 kts 338°
2026-05-04 19:28 14.93080 -61.26755 2438 ft 139 kts 338°
2026-05-04 19:28 14.93928 -61.27223 2436 ft 138 kts 336°
2026-05-04 19:29 14.94781 -61.27669 2439 ft 137 kts 338°
2026-05-04 19:29 14.95622 -61.28111 2442 ft 137 kts 337°
2026-05-04 19:29 14.96472 -61.28564 2441 ft 137 kts 337°
2026-05-04 19:29 14.97320 -61.29016 2443 ft 138 kts 338°
2026-05-04 19:30 14.98174 -61.29480 2439 ft 139 kts 337°
2026-05-04 19:30 14.99045 -61.29935 2443 ft 140 kts 338°
2026-05-04 19:30 14.99918 -61.30392 2441 ft 141 kts 338°
2026-05-04 19:30 15.00775 -61.30850 2442 ft 140 kts 337°
2026-05-04 19:31 15.01641 -61.31317 2436 ft 140 kts 337°
2026-05-04 19:31 15.02508 -61.31780 2436 ft 141 kts 337°
2026-05-04 19:31 15.03387 -61.32237 2436 ft 141 kts 337°
2026-05-04 19:31 15.04270 -61.32684 2436 ft 141 kts 337°
2026-05-04 19:32 15.05137 -61.33123 2436 ft 140 kts 337°
2026-05-04 19:32 15.06004 -61.33567 2434 ft 138 kts 338°
2026-05-04 19:32 15.06866 -61.34029 2432 ft 141 kts 337°
2026-05-04 19:32 15.07742 -61.34509 2430 ft 143 kts 337°
2026-05-04 19:33 15.08619 -61.34985 2435 ft 142 kts 337°
2026-05-04 19:33 15.09488 -61.35457 2434 ft 142 kts 337°
2026-05-04 19:33 15.10368 -61.35926 2431 ft 141 kts 337°
2026-05-04 19:33 15.11240 -61.36387 2430 ft 140 kts 336°
2026-05-04 19:34 15.12112 -61.36843 2431 ft 141 kts 337°
2026-05-04 19:34 15.12990 -61.37305 2427 ft 141 kts 338°
2026-05-04 19:34 15.13855 -61.37784 2429 ft 141 kts 337°
2026-05-04 19:34 15.14714 -61.38263 2426 ft 143 kts 337°
2026-05-04 19:35 15.15590 -61.38747 2423 ft 142 kts 337°
2026-05-04 19:35 15.16460 -61.39225 2424 ft 141 kts 336°
2026-05-04 19:35 15.17338 -61.39694 2422 ft 141 kts 337°
2026-05-04 19:35 15.18210 -61.40156 2423 ft 140 kts 337°
2026-05-04 19:36 15.19067 -61.40624 2423 ft 141 kts 336°
2026-05-04 19:36 15.19940 -61.41095 2423 ft 142 kts 337°
2026-05-04 19:36 15.20811 -61.41579 2422 ft 141 kts 336°
2026-05-04 19:36 15.21673 -61.42058 2419 ft 140 kts 336°
2026-05-04 19:37 15.22526 -61.42518 2418 ft 140 kts 337°
2026-05-04 19:37 15.23385 -61.42990 2418 ft 140 kts 336°
2026-05-04 19:37 15.24247 -61.43467 2418 ft 141 kts 336°
2026-05-04 19:37 15.25113 -61.43942 2418 ft 141 kts 336°
2026-05-04 19:38 15.25975 -61.44419 2410 ft 139 kts 336°
2026-05-04 19:38 15.26813 -61.44894 2407 ft 136 kts 336°
2026-05-04 19:38 15.27629 -61.45350 2405 ft 135 kts 336°
2026-05-04 19:38 15.28458 -61.45806 2404 ft 135 kts 336°
2026-05-04 19:39 15.29286 -61.46267 2408 ft 135 kts 336°
2026-05-04 19:39 15.30123 -61.46728 2411 ft 137 kts 336°
2026-05-04 19:39 15.30975 -61.47187 2412 ft 138 kts 336°
2026-05-04 19:39 15.31812 -61.47636 2411 ft 135 kts 341°
2026-05-04 19:40 15.32702 -61.47868 2408 ft 130 kts 359°
2026-05-04 19:40 15.33598 -61.47954 2409 ft 130 kts
2026-05-04 19:40 15.34508 -61.48056 2410 ft 133 kts
2026-05-04 19:40 15.35429 -61.48165 2346 ft 130 kts 360°
2026-05-04 19:41 15.36243 -61.48094 2142 ft 112 kts 17°
2026-05-04 19:41 15.36847 -61.47704 1939 ft 100 kts 59°
2026-05-04 19:41 15.37232 -61.47122 1751 ft 99 kts 64°
2026-05-04 19:41 15.37588 -61.46505 1560 ft 100 kts 64°
2026-05-04 19:42 15.37940 -61.45874 1357 ft 100 kts 65°
2026-05-04 19:42 15.38247 -61.45226 1167 ft 101 kts 77°
2026-05-04 19:42 15.38312 -61.44514 970 ft 98 kts 103°
2026-05-04 19:42 15.37964 -61.43913 796 ft 100 kts 126°
2026-05-04 19:43 15.37501 -61.43370 755 ft 104 kts 128°
2026-05-04 19:43 15.36983 -61.42799 721 ft 112 kts 129°
2026-05-04 19:43 15.36443 -61.42193 680 ft 109 kts 130°
2026-05-04 19:43 15.35991 -61.41662 623 ft 92 kts 129°
2026-05-04 19:44 15.35609 -61.41195 565 ft 76 kts 129°
2026-05-04 19:44 15.35317 -61.40789 482 ft 64 kts 123°
2026-05-04 19:44 15.35115 -61.40426 324 ft 55 kts 120°
2026-05-04 19:44 15.34940 -61.40051 189 ft 61 kts 117°
2026-05-04 19:45 15.34742 -61.39649 133 ft 64 kts 121°
2026-05-04 19:45 15.34448 -61.39327 64 ft 63 kts 152°
2026-05-04 19:45 15.34018 -61.39232 13 ft 60 kts 175°
2026-05-04 19:45 15.33734 -61.39217 7 ft 10 kts 195°
2026-05-04 19:46 15.33716 -61.39207 7 ft 4 kts 35°
2026-05-04 19:46 15.33763 -61.39216 7 ft 12 kts 351°
2026-05-04 19:46 15.33859 -61.39221 8 ft 13 kts 356°
2026-05-04 19:46 15.33905 -61.39211 9 ft 4 kts 60°
2026-05-04 19:47 15.33908 -61.39191 9 ft 1 kts 110°
2026-05-04 19:47 15.33903 -61.39185 9 ft 8 kts 142°
2026-05-04 19:47 15.33881 -61.39168 8 ft 2 kts 24°
2026-05-04 19:47 15.33885 -61.39170 9 ft 0 kts 303°